• Processing (Info)

  • MPEC 2014-W96 : 2001 TO48

    The following Minor Planet Electronic Circular may be linked-to from your own Web pages, but must not otherwise be redistributed electronically.

    A form allowing access to any MPEC is at the bottom of this page.


    Read MPEC 2014-W95 Read MPEC 2014-W97


    M.P.E.C. 2014-W96                                Issued 2014 Nov. 25, 05:02 UT
    
         The Minor Planet Electronic Circulars contain information on unusual
             minor planets and routine data on comets.  They are published
       on behalf of Commission 20 of the International Astronomical Union by the
              Minor Planet Center, Smithsonian Astrophysical Observatory,
                              Cambridge, MA 02138, U.S.A.
    
                 Prepared using the Tamkin Foundation Computer Network
    
                                  MPC@CFA.HARVARD.EDU
                URL https://www.minorplanetcenter.net/    ISSN 1523-6714
    
                                       2001 TO48
    
                               Revision to MPEC 2001-U22
    
    Additional Observations:
         K01T48O  C2014 11 23.36428 04 19 11.471+08 20 15.33         22.1 wLEW096F51
         K01T48O  C2014 11 23.37633 04 19 10.215+08 20 13.83         22.0 wLEW096F51
         K01T48O  C2014 11 23.38835 04 19 08.934+08 20 12.67         22.1 wLEW096F51
         K01T48O  C2014 11 23.40042 04 19 07.658+08 20 10.92         21.9 wLEW096F51
         K01T48O _C2014 11 24.35425704 17 29.565+08 18 24.01         21.6 RtEW096568
         K01T48O _C2014 11 24.35551004 17 29.435+08 18 23.85         21.8 RtEW096568
         K01T48O _C2014 11 24.35676604 17 29.293+08 18 23.76         21.6 RtEW096568
    
    Observer details:
    568 Mauna Kea.  Observers R. J. Wainscoat, D. Woodworth.  Measurers M. Micheli,
        R. J. Wainscoat.  3.6-m Canada-France-Hawaii Telescope + CCD.
    F51 Pan-STARRS 1, Haleakala.  Observers B. Gibson, T. Goggia, N. Primak,
        A. Schultz, M. Willman.  Measurers B. Bolin, K. Chambers, S. Chastel,
        L. Denneau, H. Flewelling, M. Huber, E. Magnier, E. Schunova, R. Wainscoat,
        C. Waters.  1.8-m Ritchey-Chretien + CCD.
    
    First and last observations above in comparison with prediction:
    Residuals in seconds of arc (or two decimals in degrees), reference and Delta-T
    141123 F51 1.81- 0.51-    141124 568 1.81- 0.50-    MPO 21062   +3.7 day
    
    Orbital elements:
    2001 TO48                                                Earth MOID = 0.0503 AU
    Epoch 2014 Dec. 9.0 TT = JDT 2457000.5                  MPC
    M  74.62575              (2000.0)            P               Q
    n   0.38471939     Peri.  151.82459     +0.38120995     +0.92137763
    a   1.8722909      Node   140.45170     -0.86898582     +0.38509106
    e   0.5418443      Incl.    6.83502     -0.31550377     +0.05261315
    P   2.56           H   19.7           G   0.15           U   4
    Residuals in seconds of arc
    011015 704  0.1-  0.0     011017 704  0.4+  0.7+    011115 291  0.1+  0.4+
    011015 704  0.4+  0.3-    011018 422  0.5+  0.5-    011115 291  0.0   0.5+
    011015 704  0.3+  0.3+    011018 422  0.0   0.2+    011115 291  0.0   0.2-
    011015 704  0.3+  0.4+    011024 649  0.1-  0.7-    141123 F51  0.3-  0.1+
    011016 649  0.3-  0.8-    011024 649  0.1-  0.3-    141123 F51  0.1+  0.1-
    011016 649  0.1-  0.4-    011024 649  1.1-  0.2-    141123 F51  0.1+  0.2+
    011016 649  0.6-  0.2-    011024 360  0.7-  0.3+    141123 F51  0.2+  0.2-
    011017 704  0.9+  0.4+    011024 360  0.2+  0.4-    141124 568  0.1-  0.1-
    011017 704  0.2+  0.4+    011024 360  0.8-  0.8-    141124 568  0.1-  0.1-
    011017 704  0.2-  0.2+    011115 829  0.4-  0.0     141124 568  0.3-  0.1-
    011017 704  0.1+  0.7+    011115 829  0.8+  0.2+
    
    Ephemeris:
    2001 TO48                a,e,i = 1.87, 0.54, 7                   q = 0.8578
    Date    TT    R. A. (2000) Decl.     Delta      r     Elong.  Phase     V
    2014 10 26    05 04 31.2 +10 11 29   1.0090  1.8499   134.9    22.4    22.1
    ...
    2014 11 10    04 42 23.8 +09 00 47   1.0126  1.9505   153.7    13.0    21.9
    ...
    2014 11 18    04 28 32.9 +08 33 15   1.0362  2.0018   162.7     8.4    21.9
    ...
    2014 11 24    04 18 05.8 +08 19 05   1.0653  2.0393   166.9     6.3    21.9
    2014 11 25    04 16 23.4 +08 17 19   1.0712  2.0454   167.1     6.2    21.9
    2014 11 26    04 14 41.9 +08 15 44   1.0773  2.0516   167.2     6.1    21.9
    ...
    2014 12 02    04 04 59.7 +08 10 03   1.1200  2.0878   164.9     7.1    22.1
    ...
    2014 12 10    03 53 39.9 +08 12 37   1.1923  2.1348   157.2    10.3    22.4
    ...
    2014 12 25    03 38 52.1 +08 46 03   1.3700  2.2186   140.4    16.4    23.0
    
    A. U. Tomatic                (C) Copyright 2014 MPC           M.P.E.C. 2014-W96
    

    Read MPEC 2014-W95 Read MPEC 2014-W97


    MPEC number:

    Enter an MPEC number in one of the following forms:

    • 1997-B01 (the full form)
    • J97B01 (the packed version of the full form)
    • B01 (the abbreviated form)